Year,Month,Day,Hour,Minute,Value (Times are PST for temperature in C)
2005,08,15,00,00,17.00
2005,08,15,00,01,17.00
2005,08,15,00,02,17.00
2005,08,15,00,03,17.00
2005,08,15,00,04,17.00
2005,08,15,00,05,17.00
2005,08,15,00,06,17.00
2005,08,15,00,07,16.90
2005,08,15,00,08,16.90
2005,08,15,00,09,16.90
2005,08,15,00,10,16.90
2005,08,15,00,11,16.80
2005,08,15,00,12,16.80
2005,08,15,00,14,16.80
2005,08,15,00,16,16.90
2005,08,15,00,18,16.80
2005,08,15,00,19,16.80
2005,08,15,00,23,16.80
2005,08,15,00,25,16.70
2005,08,15,00,26,16.70
2005,08,15,00,29,16.70
2005,08,15,00,30,16.70
2005,08,15,00,33,16.70
2005,08,15,00,36,16.70
2005,08,15,00,38,16.70
2005,08,15,00,39,16.70
2005,08,15,00,42,16.70
2005,08,15,00,44,16.70
2005,08,15,00,46,16.60
2005,08,15,00,48,16.60
2005,08,15,00,49,16.60
2005,08,15,00,50,16.60
2005,08,15,00,51,16.60
2005,08,15,00,52,16.60
2005,08,15,00,53,16.60
2005,08,15,00,54,16.50
2005,08,15,00,55,16.50
2005,08,15,00,56,16.40
2005,08,15,00,59,16.40
2005,08,15,01,03,16.40
2005,08,15,01,06,16.20
2005,08,15,01,07,16.20
2005,08,15,01,08,16.10
2005,08,15,01,09,16.10
2005,08,15,01,10,16.10
2005,08,15,01,12,15.90
2005,08,15,01,15,15.80
2005,08,15,01,16,15.80
2005,08,15,01,18,15.80
2005,08,15,01,19,15.70
2005,08,15,01,22,15.60
2005,08,15,01,25,15.60
2005,08,15,01,28,15.40
2005,08,15,01,30,15.30
2005,08,15,01,31,15.30
2005,08,15,01,32,15.30
2005,08,15,01,35,15.20
2005,08,15,01,36,15.20
2005,08,15,01,37,15.20
2005,08,15,01,38,15.20
2005,08,15,01,43,15.10
2005,08,15,01,45,15.10
2005,08,15,01,50,14.90
2005,08,15,01,52,14.80
2005,08,15,01,54,14.80
2005,08,15,01,55,14.80
2005,08,15,01,56,14.80
2005,08,15,01,57,14.80
2005,08,15,01,58,14.80
2005,08,15,01,59,14.80
2005,08,15,02,00,14.80
2005,08,15,02,01,14.80
2005,08,15,02,02,14.70
2005,08,15,02,03,14.70
2005,08,15,02,04,14.70
2005,08,15,02,05,14.70
2005,08,15,02,06,14.60
2005,08,15,02,07,14.60
2005,08,15,02,08,14.60
2005,08,15,02,09,14.50
2005,08,15,02,10,14.50
2005,08,15,02,11,14.50
2005,08,15,02,12,14.50
2005,08,15,02,14,14.40
2005,08,15,02,15,14.40
2005,08,15,02,16,14.40
2005,08,15,02,17,14.40
2005,08,15,02,18,14.40
2005,08,15,02,19,14.40
2005,08,15,02,20,14.30
2005,08,15,02,21,14.30
2005,08,15,02,22,14.30
2005,08,15,02,23,14.30
2005,08,15,02,24,14.20
2005,08,15,02,25,14.20
2005,08,15,02,26,14.20
2005,08,15,02,27,14.20
2005,08,15,02,28,14.20
2005,08,15,02,29,14.10
2005,08,15,02,30,14.10
2005,08,15,02,31,14.00
2005,08,15,02,32,14.00
2005,08,15,02,33,13.90
2005,08,15,02,34,13.90
2005,08,15,02,35,13.90
2005,08,15,02,36,13.90
2005,08,15,02,37,13.90
2005,08,15,02,38,13.80
2005,08,15,02,39,13.80
2005,08,15,02,40,13.80
2005,08,15,02,41,13.80
2005,08,15,02,42,13.70
2005,08,15,02,43,13.70
2005,08,15,02,44,13.70
2005,08,15,02,45,13.70
2005,08,15,02,46,13.70
2005,08,15,02,47,13.70
2005,08,15,02,48,13.70
2005,08,15,02,49,13.70
2005,08,15,02,50,13.70
2005,08,15,02,51,13.70
2005,08,15,02,52,13.70
2005,08,15,02,53,13.60
2005,08,15,02,54,13.60
2005,08,15,02,55,13.60
2005,08,15,02,56,13.60
2005,08,15,02,57,13.60
2005,08,15,02,58,13.60
2005,08,15,02,59,13.60
2005,08,15,03,00,13.60
2005,08,15,03,01,13.60
2005,08,15,03,02,13.60
2005,08,15,03,03,13.60
2005,08,15,03,04,13.60
2005,08,15,03,05,13.60
2005,08,15,03,06,13.60
2005,08,15,03,07,13.60
2005,08,15,03,08,13.50
2005,08,15,03,09,13.50
2005,08,15,03,10,13.50
2005,08,15,03,11,13.50
2005,08,15,03,12,13.50
2005,08,15,03,13,13.50
2005,08,15,03,14,13.40
2005,08,15,03,15,13.40
2005,08,15,03,16,13.40
2005,08,15,03,17,13.40
2005,08,15,03,18,13.40
2005,08,15,03,19,13.40
2005,08,15,03,20,13.40
2005,08,15,03,21,13.40
2005,08,15,03,22,13.40
2005,08,15,03,23,13.40
2005,08,15,03,24,13.40
2005,08,15,03,25,13.30
2005,08,15,03,26,13.30
2005,08,15,03,27,13.30
2005,08,15,03,28,13.30
2005,08,15,03,29,13.30
2005,08,15,03,30,13.30
2005,08,15,03,31,13.30
2005,08,15,03,32,13.30
2005,08,15,03,33,13.30
2005,08,15,03,34,13.30
2005,08,15,03,35,13.30
2005,08,15,03,36,13.30
2005,08,15,03,37,13.40
2005,08,15,03,38,13.40
2005,08,15,03,39,13.40
2005,08,15,03,40,13.40
2005,08,15,03,41,13.40
2005,08,15,03,42,13.40
2005,08,15,03,43,13.40
2005,08,15,03,44,13.40
2005,08,15,03,45,13.40
2005,08,15,03,46,13.40
2005,08,15,03,47,13.40
2005,08,15,03,48,13.40
2005,08,15,03,49,13.40
2005,08,15,03,50,13.40
2005,08,15,03,51,13.40
2005,08,15,03,52,13.40
2005,08,15,03,53,13.40
2005,08,15,03,54,13.40
2005,08,15,03,55,13.40
2005,08,15,03,56,13.40
2005,08,15,03,57,13.40
2005,08,15,03,58,13.40
2005,08,15,03,59,13.40
2005,08,15,04,00,13.40
2005,08,15,04,01,13.40
2005,08,15,04,02,13.40
2005,08,15,04,03,13.40
2005,08,15,04,04,13.40
2005,08,15,04,05,13.40
2005,08,15,04,06,13.40
2005,08,15,04,07,13.40
2005,08,15,04,08,13.40
2005,08,15,04,09,13.50
2005,08,15,04,10,13.50
2005,08,15,04,11,13.40
2005,08,15,04,12,13.40
2005,08,15,04,13,13.40
2005,08,15,04,14,13.40
2005,08,15,04,15,13.40
2005,08,15,04,16,13.40
2005,08,15,04,17,13.30
2005,08,15,04,18,13.30
2005,08,15,04,19,13.30
2005,08,15,04,20,13.30
2005,08,15,04,21,13.30
2005,08,15,04,22,13.30
2005,08,15,04,23,13.30
2005,08,15,04,24,13.30
2005,08,15,04,25,13.30
2005,08,15,04,26,13.20
2005,08,15,04,27,13.20
2005,08,15,04,28,13.20
2005,08,15,04,29,13.20
2005,08,15,04,30,13.20
2005,08,15,04,31,13.20
2005,08,15,04,32,13.20
2005,08,15,04,33,13.20
2005,08,15,04,34,13.20
2005,08,15,04,35,13.10
2005,08,15,04,36,13.10
2005,08,15,04,37,13.10
2005,08,15,04,38,13.10
2005,08,15,04,39,13.10
2005,08,15,04,40,13.10
2005,08,15,04,41,13.10
2005,08,15,04,42,13.10
2005,08,15,04,43,13.10
2005,08,15,04,44,13.10
2005,08,15,04,45,13.10
2005,08,15,04,46,13.00
2005,08,15,04,47,13.00
2005,08,15,04,48,13.00
2005,08,15,04,49,13.00
2005,08,15,04,50,13.00
2005,08,15,04,51,13.00
2005,08,15,04,52,13.00
2005,08,15,04,53,13.00
2005,08,15,04,54,13.00
2005,08,15,04,55,13.10
2005,08,15,04,56,13.10
2005,08,15,04,57,13.10
2005,08,15,04,58,13.10
2005,08,15,04,59,13.10
2005,08,15,05,00,13.10
2005,08,15,05,01,13.10
2005,08,15,05,02,13.10
2005,08,15,05,03,13.20
2005,08,15,05,04,13.20
2005,08,15,05,05,13.20
2005,08,15,05,06,13.20
2005,08,15,05,07,13.20
2005,08,15,05,08,13.20
2005,08,15,05,09,13.20
2005,08,15,05,10,13.20
2005,08,15,05,11,13.20
2005,08,15,05,12,13.20
2005,08,15,05,13,13.20
2005,08,15,05,14,13.20
2005,08,15,05,15,13.20
2005,08,15,05,16,13.20
2005,08,15,05,17,13.20
2005,08,15,05,18,13.20
2005,08,15,05,19,13.20
2005,08,15,05,20,13.10
2005,08,15,05,21,13.10
2005,08,15,05,22,13.10
2005,08,15,05,23,13.10
2005,08,15,05,24,13.10
2005,08,15,05,25,13.10
2005,08,15,05,26,13.10
2005,08,15,05,27,13.10
2005,08,15,05,28,13.10
2005,08,15,05,29,13.10
2005,08,15,05,30,13.10
2005,08,15,05,31,13.10
2005,08,15,05,32,13.10
2005,08,15,05,33,13.10
2005,08,15,05,34,13.10
2005,08,15,05,35,13.10
2005,08,15,05,36,13.10
2005,08,15,05,37,13.10
2005,08,15,05,38,13.20
2005,08,15,05,39,13.20
2005,08,15,05,40,13.20
2005,08,15,05,41,13.20
2005,08,15,05,42,13.20
2005,08,15,05,43,13.20
2005,08,15,05,44,13.20
2005,08,15,05,45,13.20
2005,08,15,05,46,13.20
2005,08,15,05,47,13.20
2005,08,15,05,48,13.20
2005,08,15,05,49,13.20
2005,08,15,05,50,13.20
2005,08,15,05,51,13.20
2005,08,15,05,52,13.20
